Location: Madrid
(40.4000°N, 3.6830°W)
Time: 19:49:32
(UTC+02:00)

ISS - Pass Details

Date: 17 March 2018
Orbit: 403 x 408 km, 51.6° (Epoch: 21 September)

Event Time Altitude Azimuth Distance (km) Brightness Sun altitude
Exits shadow 05:55:55 21° 326° (NW) 993 -2.1 -17.4°
Maximum altitude 05:57:50 46° 32° (NNE) 562 -2.9 -17.0°
Drops below altitude 10° 06:01:03 10° 107° (ESE) 1,475 -0.1 -16.4°
Sets 06:03:10 0° 114° (ESE) 2,330 0.9 -16.0°
